COSMOS 2251 DEB, 34117

Orbit data source: Space-Track

COSMOS 2251 DEB, 34117 is space debris in LEO originally from a launch on Wed, 16 Jun 1993 UTC launched from the Plesetsk Missile And Space Complex (PKMTR). The debris from Iridium 33, an American commercial communications satellite, has been tracked extensively since its accidental collision with the defunct Russian satellite Cosmos 2251 in 2009. This event, occurring at high speed in low Earth orbit (LEO), generated thousands of pieces of space debris, significantly increasing the risk of further collisions. The Iridium 33 debris cloud has impacted space traffic management and orbital debris mitigation strategies, making it a subject of ongoing study in space situational awareness.

Loading next visibility...
Identifier
34117, 1993-036KN
Orbit
LEO
Country
Flag of CISCIS
Related business
Manufacturer
Unknown
Mission
Spacecraft
Bus & Motor
Unknown
Mass
Unknown
Launch date (UTC)
1993-06-16 (32 years ago)
Launch vehicle
Unknown
Launch site
Plesetsk Missile And Space Complex (PKMTR)
Object type
Payload
Rocket body
Debris
Shape & HBR
Unknown shape, 0.1 m
Radar Cross Section
Small (<0.1 m²)

Expand to show TLE details & history
Last TLE update: 17 hours ago

TLE from 17 hours ago
0 COSMOS 2251 DEB
1 34117U 93036KN  25303.79285780  .00003687  00000-0  11628-2 0  9990
2 34117  74.0400  63.1550 0056208 152.0326 208.3870 14.39744387875056
Epoch: 2025-10-30T19:01Z
TLE epoch observation values (Epoch: 2025-10-30T19:01:42.913Z)
Latitude
-0.00005°
Longitude
98.37963°
Altitude
797.31 km
Speed
7.437 km/s
True Right ascension
04h 12m 37s
True Declination
0° 00' 00"
Sunlit
Object was in full shadow at epoch
Visualization orbit readout
Latitude
Unknown
Longitude
Unknown
Altitude
Unknown
Speed
Unknown
Apparent Right ascension
Unknown
Apparent Declination
Unknown
Sunlit
N/A
Visualization observer readout
Local Sidereal Time
07:35:33
Azimuth
Unknown
Elevation
Unknown
Doppler factor
Unknown
Orbital elements
Apogee altitude
797.068 km
Perigee altitude
716.858 km
Semi-major axis
7,135.1 km
Eccentricity
0.00562
Inclination
74.04°
RAAN
63.155°
Arg. of periapsis
152.0326°
True anomaly
208.08266°
Mean anomaly
208.387°
Eccentric anomaly
208.23464°
Mean motion
3.60117 °/min
Orbital period
99.97 mins
BSTAR
0.0011628

Documentation

Showing up to 5 results
|